Location: Oak Glen
(34.0495°N, 116.9470°E)
Time: 00:05:46
(UTC-07:00)

Envisat - Pass Details

Date: 09 October 2017
Orbit: 764 x 766 km, 98.2° (Epoch: 19 October)

Event Time Altitude Azimuth Distance (km) Brightness Sun altitude
Exits shadow 03:42:43 12° 57° (ENE) 2,172 4.9 -12.5°
Drops below altitude 10° 03:44:02 10° 42° (NE) 2,302 5.1 -12.8°
Sets 03:47:50 0° 13° (NNE) 3,233 6.1 -13.6°
